This is the latest recevied weather packets stored in our database for station/object OE3APM-13. If no packets are shown the sender has not sent any weather packets the latest 10 day(s).
| Time | Temp. | Humidity | Pressure | Rain* | Wind** | Luminosity | Snow |
|---|---|---|---|---|---|---|---|
| 1787833057 | 27.22° C | 50% | 1018.6 hPa | 0 mm | - | 406 W/m² | - |
| 1787833049 | 27.22° C | 50% | 1018.5 hPa | 0 mm | - | 353 W/m² | - |
| 1787832450 | 27.22° C | 50% | 1018.6 hPa | 0 mm | - | 520 W/m² | - |
| 1787832151 | 27.22° C | 49% | 1018.6 hPa | 0 mm | - | 515 W/m² | - |
| 1787831848 | 27.22° C | 49% | 1018.7 hPa | 0 mm | - | 612 W/m² | - |
| 1787831548 | 27.78° C | 49% | 1018.6 hPa | 0 mm | - | 501 W/m² | - |
| 1787831249 | 27.22° C | 49% | 1018.7 hPa | 0 mm | - | 598 W/m² | - |
| 1787830949 | 27.22° C | 49% | 1018.6 hPa | 0 mm | - | 527 W/m² | - |
| 1787830649 | 27.78° C | 49% | 1018.7 hPa | 0 mm | - | 628 W/m² | - |
| 1787830348 | 27.78° C | 48% | 1018.7 hPa | 0 mm | - | 729 W/m² | - |
| 1787830047 | 27.78° C | 48% | 1018.7 hPa | 0 mm | - | 629 W/m² | - |
| 1787829748 | 27.22° C | 50% | 1018.7 hPa | 0 mm | - | 761 W/m² | - |
| 1787829447 | 27.22° C | 50% | 1018.7 hPa | 0 mm | - | 636 W/m² | - |
| 1787829148 | 27.22° C | 49% | 1018.8 hPa | 0 mm | - | 566 W/m² | - |
| 1787828846 | 26.67° C | 50% | 1018.7 hPa | 0 mm | - | 793 W/m² | - |
| 1787828544 | 26.67° C | 50% | 1018.8 hPa | 0 mm | - | 721 W/m² | - |
| 1787828245 | 26.11° C | 51% | 1018.7 hPa | 0 mm | - | 789 W/m² | - |
| 1787827946 | 26.11° C | 50% | 1018.9 hPa | 0 mm | - | 759 W/m² | - |
| 1787827646 | 26.11° C | 51% | 1018.9 hPa | 0 mm | - | 550 W/m² | - |
| 1787827344 | 26.11° C | 51% | 1018.9 hPa | 0 mm | - | 780 W/m² | - |
| 1787827045 | 26.11° C | 50% | 1018.9 hPa | 0 mm | - | 654 W/m² | - |
| 1787826745 | 26.11° C | 52% | 1019 hPa | 0 mm | - | 694 W/m² | - |
| 1787826440 | 25.56° C | 51% | 1019 hPa | 0 mm | - | 763 W/m² | - |
| 1787826140 | 25.56° C | 51% | 1019 hPa | 0 mm | - | 775 W/m² | - |
| 1787825840 | 25.56° C | 50% | 1018.9 hPa | 0 mm | - | 770 W/m² | - |
* Rain latest hour (hover to see other rain measurements)
** Current wind speed in m/s (hover to see current wind gust speed)